Content
SEND FEEDBACK

Daily
Averages
Monthly
Summary
Grenada

SAINT GEORGE'S, GRENADA


Home > Caribbean > Grenada
Elevation: 23 feet     Latitude: 12 01N     Longitude: 061 48W

WEATHER
 
SELECT A DAY
Number of Records: 153,845;   Date Range: 6/30/96 - 8/10/14
 
SHARE

PRINT THIS DATA

[ ← Previous Day ]
WEATHER ALMANAC - JANUARY 31, 2013
[ Next Day → ]
[ °C ]   °F
Weather ElementAverageHighLow
Temperature80.2 °F86 °F (12:00 pm)75 °F (11:00 pm)
Dewpoint71.8 °F73.4 °F (8:00 am)69.8 °F (3:00 pm)
Humidity74.6 %89 % (10:00 pm)55 % (2:00 pm)
Barometer29.95 in30.01 in (10:00 am)29.92 in (3:00 am)
Wind Speed14.6 mph28.8 mph (12:00 pm)
Weather ElementAverage
Visibility7.4 mi
Wind DirectionE (92.6 °)

Weather ElementTotal
Precipitation---
Cooling Degree Days15.5 (Base 65)
Growing Degree Days30.5 (Base 50)
Averaged from 31 records on January 31, 2013
WEATHER CONDITIONS BREAKOUT
WIND DIRECTION BREAKOUT
WEATHER BY HOUR - JANUARY 31, 2013
[ °C ]   °F
Local TimeTemperatureDewpointHumidityBarometerVisibilityWind DirectionWind SpeedGust SpeedPrecipitationEventsConditions
1:00 AM77.0 °F71.6 °F83 %29.95 in6.2 miEast (100°)4.6 mphScattered Clouds
2:00 AM77.0 °F72.0 °F80 %29.96 in11.0 miEast (90°)8.1 mphWidespread Dust
2:00 AM77.0 °F71.6 °F83 %29.95 in6.2 miEast (90°)8.1 mphPartly Cloudy
3:00 AM78.8 °F71.6 °F78 %29.92 in6.2 miEast (100°)13.8 mphPartly Cloudy
4:00 AM77.0 °F71.6 °F83 %29.92 in6.2 miEast (80°)9.2 mphPartly Cloudy
5:00 AM77.0 °F72.0 °F80 %29.94 in11.0 miEast (80°)11.5 mphWidespread Dust
5:00 AM77.0 °F71.6 °F83 %29.92 in6.2 miEast (80°)11.5 mphScattered Clouds
6:00 AM77.0 °F71.6 °F83 %29.95 in6.2 miEast (90°)5.8 mphPartly Cloudy
7:00 AM77.0 °F71.6 °F83 %29.95 in6.2 miENE (70°)11.5 mphPartly Cloudy
8:00 AM81.0 °F73.0 °F71 %29.98 in9.0 miEast (90°)11.5 mphWidespread Dust
8:00 AM80.6 °F73.4 °F79 %29.98 in6.2 miEast (90°)11.5 mphPartly Cloudy
9:00 AM82.4 °F73.4 °F74 %29.98 in6.2 miESE (110°)17.3 mphPartly Cloudy
10:00 AM82.4 °F71.6 °F70 %30.01 in6.2 miESE (110°)23.0 mphScattered Clouds
11:00 AM85.0 °F73.0 °F59 %30.01 in11.0 miEast (100°)26.5 mphWidespread Dust
11:00 AM84.2 °F73.4 °F70 %30.01 in6.2 miEast (100°)26.5 mphScattered Clouds
12:00 PM86.0 °F73.4 °F66 %29.98 in6.2 miEast (100°)28.8 mphScattered Clouds
1:00 PM86.0 °F71.6 °F62 %29.95 in6.2 miESE (110°)20.7 mphPartly Cloudy
2:00 PM85.0 °F71.0 °F55 %29.95 in14.0 miEast (100°)23.0 mphWidespread Dust
2:00 PM86.0 °F71.6 °F62 %29.95 in6.2 miEast (100°)23.0 mphPartly Cloudy
3:00 PM84.2 °F69.8 °F62 %29.92 in6.2 miEast (90°)18.4 mphPartly Cloudy
4:00 PM82.4 °F71.6 °F70 %29.92 in6.2 miEast (90°)16.1 mphScattered Clouds
5:00 PM81.0 °F70.0 °F62 %29.92 in12.0 miEast (100°)13.8 mphWidespread Dust
5:30 PM80.6 °F69.8 °F70 %29.92 in6.2 miEast (100°)13.8 mphPartly Cloudy
6:00 PM80.6 °F71.6 °F74 %29.92 in6.2 miEast (100°)13.8 mphMostly Cloudy
7:00 PM78.8 °F71.6 °F78 %29.92 in6.2 miEast (80°)11.5 mphPartly Cloudy
8:00 PM79.0 °F71.0 °F70 %29.95 in16.0 miEast (90°)11.5 mphScattered Clouds
8:00 PM78.8 °F71.6 °F78 %29.95 in6.2 miEast (90°)11.5 mphPartly Cloudy
9:00 PM78.8 °F71.6 °F78 %29.95 in6.2 miEast (90°)11.5 mphPartly Cloudy
10:00 PM77.0 °F73.4 °F89 %29.98 in6.2 miEast (90°)11.5 mphRainRain Showers
11:00 PM75.0 °F72.0 °F89 %29.97 in4.0 miEast (80°)11.5 mphRainLight Rain Showers
11:00 PM75.2 °F71.6 °F89 %29.95 in4.3 miEast (80°)11.5 mphRainRain Showers
Hourly data recorded from TGPY, located miles away from Saint George's, Grenada







STORIES FROM OUR PARTNERS